Dewpoint
65 69 71 72 73 73 73 72 72 72 71 70 70 70 67 65 66 66 66 66 64 64 65 65 65 67 68 68 69 69 68 69 67 66 67 68 66 66 66 66 67 65 65
67 69 70 72 73 73 73 73 72 72 72 71 70 70 67 66 66 67 66 65 65 65 67 68 66 66 68 68 68 67 68 68 66 65 66 66 67 67 66 68 67 66 65
67 69 69 72 73 73 73 72 72 72 72 70 70 70 68 67 68 67 67 66 65 66 68 67 67 68 67 66 66 67 68 68 66 67 67 68 68 68 67 68 67 65 64
67 69 70 72 72 72 72 72 72 72 72 71 71 70 68 66 69 69 67 66 66 66 68 68 67 67 65 64 66 67 67 66 65 65 66 66 65 66 66 66 65 64 63
63 68 70 71 71 72 71 71 71 71 71 71 70 69 68 67 67 69 69 68 68 68 69 68 67 67 66 65 66 66 66 66 65 63 64 65 65 65 65 64 63 63 63
55 61 70 70 70 71 71 71 71 72 71 70 70 70 68 69 67 68 69 68 69 69 68 67 66 67 67 66 66 66 65 64 61 62 64 65 64 65 63 62 62 62 62
47 52 68 70 69 69 71 71 70 71 71 70 70 70 69 70 68 68 69 68 69 69 68 67 66 66 67 66 66 64 63 61 59 60 63 63 63 62 61 62 62 62 62
44 47 55 69 69 69 69 71 70 70 70 70 69 69 69 70 69 69 70 68 69 68 67 67 65 65 64 63 63 62 60 59 58 60 61 62 63 62 62 62 62 62 61
42 43 45 53 69 69 68 68 69 70 70 70 70 69 69 69 70 70 70 69 68 68 68 67 65 65 65 64 65 63 57 56 56 58 61 62 63 62 62 63 62 62 61
40 42 42 43 48 64 68 68 69 69 69 69 69 69 68 69 69 69 69 69 68 68 68 67 66 66 66 67 66 63 58 56 56 57 61 62 64 63 63 63 62 62 61
37 38 42 41 42 45 56 68 68 69 69 68 68 69 68 69 69 69 69 69 68 68 68 67 67 67 66 66 66 63 59 55 54 56 61 64 64 63 63 63 62 62 61
31 35 38 39 40 42 45 58 68 68 69 68 68 68 68 68 68 68 68 68 68 68 67 68 67 67 66 66 65 63 59 56 55 56 62 64 64 63 63 63 63 62 62
32 34 37 39 41 42 42 47 64 68 68 68 67 67 68 68 67 67 67 67 67 67 67 68 68 67 65 65 65 63 59 58 57 57 62 64 64 63 63 63 63 63 63
31 33 35 36 37 39 41 43 49 65 67 67 67 66 67 66 66 66 66 66 67 66 66 66 66 66 65 63 63 63 60 57 57 56 61 62 64 62 63 64 64 63 63
31 33 35 37 39 40 40 41 45 55 65 67 67 66 65 66 65 65 66 66 66 65 64 64 65 65 64 62 60 60 60 57 56 55 59 61 62 63 63 63 64 64 64
33 34 35 37 40 41 40 40 42 47 61 65 66 66 65 65 65 64 66 66 66 65 63 61 62 62 62 61 59 57 57 55 55 54 57 59 60 61 63 63 63 64 64
38 37 37 38 39 40 41 40 40 42 47 63 65 66 64 64 63 63 66 66 66 66 63 62 60 59 59 58 57 56 55 54 53 53 53 57 59 59 60 62 63 63 64
43 44 44 42 41 40 40 40 40 41 44 55 63 64 65 64 63 62 63 66 66 66 65 64 61 59 56 56 55 55 55 54 52 51 50 53 56 58 59 61 63 64 64
41 42 43 45 44 42 41 40 40 40 43 51 60 63 64 65 64 63 63 63 66 65 65 64 63 59 56 55 54 55 54 53 52 51 50 49 52 55 55 57 60 61 63
41 41 41 42 45 44 42 41 40 40 41 46 59 62 63 65 65 64 64 64 65 65 64 64 63 62 60 56 54 54 54 54 53 52 50 50 50 52 55 55 56 59 60
40 41 41 42 42 45 43 41 40 39 39 43 53 62 64 64 65 64 64 64 65 64 63 64 63 62 61 60 58 57 58 56 55 55 54 52 51 51 53 55 56 57 57
42 42 42 42 42 45 45 42 42 40 41 45 53 60 63 63 64 65 64 64 64 64 63 63 62 61 61 62 59 58 56 56 58 58 57 55 53 52 52 54 55 56 58
41 42 44 45 43 43 47 44 43 44 45 48 55 59 61 62 62 63 64 64 63 63 63 63 63 62 60 62 61 59 56 54 53 55 58 57 56 54 53 52 54 55 56
41 42 43 46 43 44 47 46 44 43 41 44 50 56 58 60 61 62 64 64 63 63 62 63 64 63 62 60 62 62 60 57 52 50 53 56 56 55 54 54 54 54 55
42 42 43 45 46 45 47 47 45 43 44 44 49 54 55 57 59 59 62 62 63 63 62 62 62 62 62 60 60 61 61 60 60 57 54 54 54 54 54 53 54 54 54
41 42 43 45 48 47 50 49 45 44 43 44 46 51 53 56 59 60 61 61 63 63 63 63 62 62 62 61 60 60 58 57 58 57 55 55 55 55 54 56 56 56 56
Wind_Speed
7 8 14 13 13 11 13 14 14 14 13 12 11 12 12 12 13 13 12 12 11 11 12 13 12 11 13 14 13 16 15 14 15 14 13 12 13 14 15 16 14 15 17
6 8 12 13 13 13 12 12 12 14 13 13 12 11 11 12 12 13 13 12 10 10 11 11 14 11 12 13 13 13 12 12 13 14 14 13 12 14 15 15 15 17 15
13 7 12 14 12 12 11 12 13 13 13 11 12 13 10 10 11 10 11 11 10 10 8 14 14 12 11 11 11 10 10 9 10 13 15 11 13 17 18 16 15 14 14
14 3 9 14 14 12 11 11 13 13 12 10 10 12 10 9 9 10 9 10 9 9 14 15 14 12 11 10 7 6 6 6 5 6 8 13 11 13 14 13 14 13 13
15 14 4 13 13 11 10 10 12 13 12 10 10 10 12 8 8 7 11 7 10 9 15 15 14 13 11 9 6 4 3 5 8 2 10 13 11 11 12 11 11 12 12
12 14 2 11 11 13 10 9 11 13 13 12 11 10 12 12 8 7 8 9 11 16 15 14 13 13 12 10 6 3 2 3 7 10 13 13 11 10 10 11 11 11 11
14 14 9 5 7 10 11 10 9 10 12 12 11 10 10 12 10 8 7 9 14 16 15 13 12 12 11 10 7 3 0 3 8 8 13 12 10 9 9 10 10 10 9
11 14 14 1 6 7 10 11 11 11 11 11 11 10 11 11 10 9 10 11 15 16 15 13 13 12 11 10 7 4 3 1 5 8 12 11 10 9 9 9 8 8 8
9 12 13 14 3 7 9 10 11 11 12 12 11 12 11 9 9 10 11 13 16 17 15 15 14 12 11 10 8 7 6 3 1 5 10 11 10 9 8 8 7 7 7
8 9 10 11 11 6 9 12 12 13 14 14 13 12 10 11 10 10 11 13 15 16 16 15 14 13 12 11 11 8 7 5 5 4 11 12 12 10 8 8 7 7 6
10 10 7 9 10 10 6 12 15 15 15 14 14 13 12 11 12 12 13 14 15 16 16 16 14 13 12 12 11 10 8 7 6 5 13 15 14 11 10 9 8 8 7
10 10 9 7 9 10 9 9 13 14 14 14 13 13 13 13 13 13 16 18 18 17 17 16 15 14 12 10 10 10 9 9 8 6 13 17 15 12 11 10 9 8 8
8 9 10 10 10 10 10 10 7 10 13 13 16 15 15 13 14 14 14 14 14 17 13 13 13 12 12 12 12 12 13 12 11 9 15 18 16 14 13 12 11 11 10
14 12 12 12 13 13 12 12 12 9 10 13 14 17 15 14 14 15 15 15 16 14 17 15 13 14 14 14 13 14 15 14 13 11 15 21 18 17 16 16 14 14 13
15 16 15 13 13 14 14 14 14 14 13 13 15 17 17 17 15 14 17 16 15 15 16 16 16 15 16 16 16 16 18 17 14 11 14 20 20 19 18 18 17 17 16
16 17 15 13 14 13 15 15 17 16 15 14 13 15 20 19 18 16 17 17 17 17 16 16 17 16 17 16 17 17 19 17 18 14 14 18 22 21 20 20 19 19 19
17 15 14 14 13 12 16 18 17 18 16 15 14 15 16 21 18 17 17 17 18 17 18 17 17 15 15 15 18 17 17 14 15 16 15 16 18 22 22 22 21 21 20
21 21 23 17 15 16 16 18 17 17 18 17 15 15 18 17 21 17 16 17 18 18 19 17 17 19 17 18 18 19 17 17 17 16 16 16 16 16 20 23 22 22 21
20 21 23 22 22 19 19 18 19 19 19 16 17 16 17 17 14 19 17 16 17 18 19 19 16 17 19 17 18 17 16 17 18 16 18 17 18 17 16 21 24 24 23
22 23 23 22 22 21 18 16 16 18 17 18 17 18 17 15 18 13 13 14 16 17 17 17 19 14 12 15 14 15 16 16 15 18 17 16 18 17 18 19 19 19 25
20 22 24 26 24 21 19 15 16 21 18 17 16 18 16 16 16 17 16 16 14 17 21 19 17 16 16 11 7 8 10 13 17 17 14 17 18 17 18 18 18 17 17
22 22 23 25 24 21 18 11 13 10 14 14 15 18 18 16 16 14 16 15 20 17 18 19 20 13 15 15 11 5 8 13 17 17 15 17 21 16 19 18 18 20 18
25 24 26 24 23 21 19 18 14 10 6 9 11 16 17 17 17 18 14 15 18 20 20 21 20 21 17 12 17 8 6 11 4 10 23 22 22 19 18 18 19 19 19
27 25 23 23 20 20 18 17 17 17 18 12 12 14 15 15 16 15 15 14 17 17 22 21 19 20 16 17 9 17 11 5 6 4 5 10 17 17 18 18 19 19 20
26 26 24 22 20 19 17 16 15 16 15 12 13 15 15 14 16 19 18 17 17 15 17 21 19 20 21 17 14 7 17 16 15 14 18 12 5 14 16 18 19 18 20
24 24 24 21 19 16 11 14 11 14 15 13 14 15 14 14 14 17 19 21 18 15 15 18 21 20 20 19 16 18 16 10 13 12 15 13 15 16 16 17 19 19 18
Wind_Direction
360 183 160 153 149 149 148 148 145 140 138 132 128 123 119 118 123 123 120 120 119 120 123 122 111 91 89 92 88 81 85 88 95 95 88 81 74 71 107 97 90 88 81
347 206 174 156 152 154 158 149 151 146 146 147 136 130 128 127 128 127 125 127 129 130 134 125 105 99 90 87 75 82 91 102 105 105 96 86 78 82 94 96 96 89 82
341 227 182 158 157 153 162 162 160 156 157 154 152 144 137 142 138 137 138 138 135 139 136 123 112 102 97 91 90 93 95 106 119 118 109 93 83 90 88 91 85 84 85
355 168 169 163 166 164 164 170 169 168 168 166 165 153 140 157 157 156 154 149 136 139 125 119 112 113 106 101 100 100 102 85 69 84 98 106 97 88 88 87 92 89 87
8 4 201 174 168 170 174 173 179 177 178 174 167 166 144 169 172 179 174 163 145 136 122 126 127 126 121 115 112 105 81 53 11 77 123 104 96 95 98 95 93 91 90
10 8 13 186 185 173 175 187 180 183 185 179 176 181 160 167 188 191 174 162 138 131 132 133 134 135 132 131 130 120 69 36 38 103 119 109 108 111 108 104 103 100 98
16 8 19 204 202 187 180 184 190 189 183 185 192 181 175 168 186 193 185 177 152 142 142 143 144 146 144 145 149 153 164 4 31 120 116 117 115 115 110 107 104 103 104
20 13 9 137 209 205 194 188 191 196 197 195 200 196 184 176 190 197 192 187 163 156 155 156 157 156 157 158 159 178 220 330 46 132 128 125 129 130 125 119 115 113 113
22 17 8 11 217 213 213 209 204 200 202 207 210 202 190 185 201 200 196 189 176 168 165 165 168 170 175 180 176 187 215 218 215 151 142 140 143 144 138 134 129 127 128
7 9 358 7 9 327 230 218 215 210 209 209 212 213 189 193 205 214 204 194 183 176 169 170 176 180 183 185 177 196 218 229 235 168 164 158 158 160 158 155 152 151 151
344 336 344 346 349 343 344 233 222 218 217 216 214 205 200 201 205 204 202 201 195 186 177 177 181 183 183 179 185 198 217 219 221 171 162 170 168 172 174 177 179 176 173
325 323 315 320 317 323 323 332 223 218 214 214 211 205 202 209 210 203 202 202 199 195 187 184 188 189 189 190 196 205 218 225 226 220 182 179 176 182 188 193 196 197 196
304 308 311 306 297 297 301 302 301 224 216 217 212 208 206 212 216 214 205 203 195 193 190 191 193 196 199 201 208 211 221 231 231 211 185 183 183 191 199 204 209 212 214
297 291 286 282 281 279 284 282 281 263 239 215 217 209 203 210 211 206 200 196 189 187 189 191 197 203 211 216 215 221 227 228 232 206 190 189 191 195 204 209 214 220 223
284 284 280 273 266 265 267 274 277 269 246 241 220 215 206 207 215 203 196 191 192 186 192 192 197 204 216 227 224 221 227 226 228 200 197 198 199 201 206 213 218 221 226
278 284 281 279 271 260 252 260 268 274 270 250 241 225 217 208 211 202 192 189 191 189 193 193 197 203 214 219 230 225 226 225 224 210 201 207 205 207 210 215 221 225 228
324 303 293 282 266 262 256 250 255 264 272 263 252 255 241 217 210 197 185 189 195 194 195 196 199 204 208 215 225 233 223 225 224 227 216 211 213 214 215 217 223 226 230
342 339 324 302 284 270 257 252 250 255 259 265 258 257 242 234 206 202 191 194 193 192 197 203 198 206 205 209 218 222 224 229 233 231 231 213 211 215 221 224 225 228 231
330 325 319 314 294 275 267 251 245 246 251 254 253 253 259 244 237 208 201 199 194 194 197 204 207 199 203 202 212 217 222 224 226 236 234 232 223 218 217 226 227 229 230
323 316 312 308 305 284 264 259 249 247 250 250 251 248 251 253 237 234 220 202 198 196 197 198 205 207 205 205 208 214 218 226 232 239 238 235 239 226 221 222 226 231 234
310 305 304 301 297 296 270 258 254 245 245 245 242 242 247 252 251 229 227 221 209 199 201 201 204 209 214 197 198 236 248 240 240 242 239 244 247 245 234 225 223 223 227
314 306 300 289 286 288 276 243 240 231 234 234 232 232 236 248 256 240 225 219 216 209 206 200 200 204 212 180 196 175 235 250 247 244 242 243 244 239 241 239 228 225 225
325 319 312 291 279 284 289 257 247 247 249 250 242 230 225 240 253 251 234 229 224 216 206 203 202 203 213 194 198 168 193 221 199 236 237 238 239 235 239 240 232 229 229
328 319 313 307 279 280 284 263 239 243 242 242 256 241 226 234 252 257 249 234 238 222 213 211 206 203 199 212 199 216 218 125 221 253 240 234 236 238 235 235 238 236 232
328 321 316 309 285 271 273 268 243 240 245 246 258 254 244 251 255 257 255 243 232 225 219 210 216 210 210 216 206 188 224 225 236 247 268 254 254 237 234 233 231 229 233
333 329 323 307 299 272 287 275 244 246 242 250 261 262 253 257 253 257 254 247 237 224 221 220 214 209 215 212 207 213 221 208 205 218 233 249 256 264 247 241 234 232 228